Lorain / Elyria, OH

4:13 PM EDT on July 23, 2017 (GMT -0400)
Lorain County Regional

Weather History for KLPR - November, 2013

Change the Weather History Date:

Thursday, November 21, 2013

  Actual Average (KCLE) Record (KCLE)
Temperature  
Mean Temperature 42 °F -  
Max Temperature 46 °F 44 °F 70 °F (1930)
Min Temperature 39 °F 32 °F 3 °F (1880)
Degree Days  
Heating Degree Days 23    
Moisture  
Dew Point 34 °F    
Average Humidity 71    
Maximum Humidity 87    
Minimum Humidity 41    
Precipitation  
Precipitation 0.12 in - - ()
Sea Level Pressure  
Sea Level Pressure 30.30 in    
Wind  
Wind Speed 9 mph (South)    
Max Wind Speed 14 mph    
Max Gust Speed -    
Visibility 9 miles    
Events Rain    
Averages and records for this station are not official NWS values.
T = Trace of Precipitation, MM = Missing Value Source: NWS Daily Summary

Daily Weather History Graph

Daily Weather History Graph

Search for Another Location

Airport or City:

Trip Planner

Search our weather history database for the weather conditions in past years. The results will help you decide how hot, cold, wet, or windy it might be!

Date:

Astronomy

Nov. 21, 2013 Rise Set
Actual Time 7:24 AM EST 5:04 PM EST
Civil Twilight 6:54 AM EST 5:34 PM EST
Nautical Twilight 6:20 AM EST 6:08 PM EST
Astronomical Twilight 5:47 AM EST 6:41 PM EST
Moon 8:40 PM EST (11/21) 10:29 AM EST (11/21)
Length of Visible Light 10h 40m
Length of Day
9h 40m
Waning Gibbous, 85% of the Moon is Illuminated
Nov 21
Waning Gibbous
Nov 25
Last Quarter
Dec 2
New
Dec 9
First Quarter
Dec 17
Full

Hourly Weather History & Observations

Time (EST) Temp. Windchill Dew Point Humidity Pressure Visibility Wind Dir Wind Speed Gust Speed Precip Events Conditions
12:53 AM 41.0 °F 35.8 °F 19.0 °F 41% 30.32 in 10.0 mi South 8.1 mph - N/A   Clear
1:53 AM 41.0 °F 35.2 °F 19.0 °F 41% 30.33 in 10.0 mi South 9.2 mph - N/A   Mostly Cloudy
2:53 AM 42.1 °F 35.7 °F 19.9 °F 41% 30.33 in 10.0 mi South 11.5 mph - N/A   Overcast
3:53 AM 42.1 °F 35.2 °F 21.0 °F 43% 30.32 in 10.0 mi South 12.7 mph - N/A   Overcast
4:53 AM 41.0 °F 36.4 °F 26.1 °F 55% 30.33 in 10.0 mi South 6.9 mph - 0.00 in   Overcast
5:53 AM 42.1 °F 36.1 °F 25.0 °F 51% 30.35 in 10.0 mi South 10.4 mph - 0.00 in   Overcast
6:53 AM 41.0 °F 33.5 °F 27.0 °F 57% 30.36 in 10.0 mi South 13.8 mph - 0.00 in Rain Light Rain
7:53 AM 41.0 °F 33.5 °F 30.0 °F 65% 30.35 in 10.0 mi South 13.8 mph - 0.01 in Rain Light Rain
8:53 AM 39.9 °F 32.9 °F 33.1 °F 77% 30.35 in 10.0 mi South 11.5 mph - 0.00 in Rain Light Rain
9:53 AM 39.9 °F 33.9 °F 35.1 °F 83% 30.36 in 8.0 mi SSW 9.2 mph - 0.01 in Rain Light Rain
10:53 AM 42.1 °F 36.1 °F 37.0 °F 82% 30.38 in 10.0 mi SSW 10.4 mph - 0.00 in Rain Light Rain
11:53 AM 42.1 °F 35.7 °F 37.0 °F 82% 30.34 in 10.0 mi South 11.5 mph - 0.00 in   Overcast
12:53 PM 43.0 °F 38.2 °F 37.9 °F 82% 30.33 in 10.0 mi South 8.1 mph - 0.00 in Rain Light Rain
1:53 PM 45.0 °F 39.7 °F 39.0 °F 80% 30.29 in 10.0 mi South 10.4 mph - 0.01 in   Overcast
2:53 PM 45.0 °F 39.7 °F 39.0 °F 80% 30.27 in 10.0 mi South 10.4 mph - 0.00 in Rain Light Rain
3:53 PM 45.0 °F 39.3 °F 37.9 °F 76% 30.27 in 10.0 mi South 11.5 mph - 0.00 in Rain Light Rain
4:53 PM 44.1 °F 42.5 °F 37.9 °F 79% 30.28 in 10.0 mi South 3.5 mph - 0.00 in   Overcast
5:53 PM 44.1 °F 41.5 °F 37.9 °F 79% 30.28 in 10.0 mi SSE 4.6 mph - N/A   Overcast
6:53 PM 44.1 °F 42.5 °F 39.0 °F 82% 30.29 in 10.0 mi South 3.5 mph - 0.00 in Rain Light Rain
7:53 PM 44.1 °F 41.5 °F 39.0 °F 82% 30.26 in 8.0 mi South 4.6 mph - 0.01 in Rain Light Rain
8:53 PM 44.1 °F - 39.9 °F 85% 30.25 in 8.0 mi Calm Calm - 0.01 in Rain Light Rain
9:53 PM 44.1 °F 42.5 °F 39.9 °F 85% 30.24 in 8.0 mi South 3.5 mph - 0.00 in Rain Light Rain
10:32 PM 44.6 °F 43.1 °F 41.0 °F 87% 30.21 in 7.0 mi SSW 3.5 mph - 0.02 in Rain Light Rain
10:53 PM 45.0 °F - 41.0 °F 86% 30.22 in 5.0 mi Calm Calm - 0.03 in Rain Light Rain
11:53 PM 46.0 °F 43.9 °F 42.1 °F 86% 30.22 in 6.0 mi South 4.6 mph - 0.04 in Rain Light Rain